Tracking 30995 objects as of 7-Jul-2025
HD Live streaming from Space Station
objects crossing your sky now

COSMOS 1581

Track COSMOS 1581 now!
COSMOS 1581 is classified as:


NORAD ID: 15095
Int'l Code: 1984-071A
Perigee: 2,310.5 km
Apogee: 38,213.7 km
Inclination: 66.9 °
Period: 720.9 minutes
Semi major axis: 26633 km
RCS: 9.1322 m2 (large)
Launch date: July 3, 1984
Source: Commonwealth of Independent States (former USSR) (CIS)
Launch site: PLESETSK MISSILE AND SPACE COMPLEX (PKMTR)
Your satellite tracking list
Your tracking list is empty




NASA's NSSDC Master Catalog

Two Line Element Set (TLE):
1 15095U 84071A   25187.39358048 -.00000241  00000-0  00000+0 0  9990
2 15095  66.8553  47.6426 6740328   9.6372 358.8147  1.99742120273712
Source of the keplerian elements: AFSPC